This is the latest recevied weather packets stored in our database for station/object KF0JJO. If no packets are shown the sender has not sent any weather packets the latest 1 day(s).
| Time | Temp. | Humidity | Pressure | Rain* | Wind** | Luminosity | Snow |
|---|---|---|---|---|---|---|---|
| 1836274838 | 17.78° C | 97% | 1045.9 hPa | 0 mm | 0 m/s | 0 W/m² | - |
| 1836274536 | 18.33° C | 97% | 1045.8 hPa | 0 mm | 0 m/s | 0 W/m² | - |
| 1836274389 | 17.78° C | 97% | 1046 hPa | 0 mm | 0 m/s | 0 W/m² | - |
| 1836274235 | 18.33° C | 97% | 1046 hPa | 0 mm | 0 m/s | 0 W/m² | - |
| 1836273934 | 18.33° C | 97% | 1046 hPa | 0 mm | 0 m/s | 0 W/m² | - |
| 1778037044 | 6.11° C | 46% | 1044.4 hPa | 0 mm | 0.45 m/s, 53° | 0 W/m² | - |
| 1778036743 | 6.11° C | 46% | 1044.3 hPa | 0 mm | 0 m/s | 0 W/m² | - |
| 1778036439 | 6.11° C | 46% | 1044.3 hPa | 0 mm | 0 m/s | 0 W/m² | - |
| 1778036136 | 6.11° C | 45% | 1044.2 hPa | 0 mm | 0 m/s | 0 W/m² | - |
| 1778035832 | 6.67° C | 44% | 1044.2 hPa | 0 mm | 1.34 m/s, 294° | 0 W/m² | - |
| 1778035530 | 6.67° C | 44% | 1043.9 hPa | 0 mm | 0 m/s | 0 W/m² | - |
| 1778035226 | 6.67° C | 44% | 1043.8 hPa | 0 mm | 0 m/s | 0 W/m² | - |
| 1778034922 | 6.67° C | 44% | 1043.9 hPa | 0 mm | 0 m/s | 0 W/m² | - |
| 1778034620 | 6.67° C | 43% | 1043.8 hPa | 0 mm | 0.45 m/s, 29° | 0 W/m² | - |
| 1778034317 | 6.67° C | 43% | 1043.7 hPa | 0 mm | 0 m/s | 0 W/m² | - |
| 1778034015 | 7.22° C | 43% | 1043.5 hPa | 0 mm | 0 m/s | 0 W/m² | - |
| 1778033712 | 7.22° C | 43% | 1043.3 hPa | 0 mm | 0 m/s | 0 W/m² | - |
| 1778033409 | 7.22° C | 42% | 1043.5 hPa | 0 mm | 0.45 m/s, 29° | 0 W/m² | - |
| 1778033107 | 7.22° C | 42% | 1043.3 hPa | 0 mm | 0 m/s | 0 W/m² | - |
| 1778032803 | 7.22° C | 41% | 1043.3 hPa | 0 mm | 0 m/s | 0 W/m² | - |
| 1778032501 | 7.78° C | 41% | 1042.9 hPa | 0 mm | 0 m/s | 0 W/m² | - |
| 1778032198 | 7.78° C | 41% | 1043.1 hPa | 0 mm | 0 m/s | 0 W/m² | - |
| 1778031895 | 7.78° C | 40% | 1043.2 hPa | 0 mm | 0 m/s | 0 W/m² | - |
| 1778031591 | 7.78° C | 40% | 1042.9 hPa | 0 mm | 0 m/s | 0 W/m² | - |
| 1778031289 | 7.78° C | 41% | 1042.8 hPa | 0 mm | 0 m/s | 1 W/m² | - |
* Rain latest hour (hover to see other rain measurements)
** Current wind speed in m/s (hover to see current wind gust speed)